EJA309 KTEB-KCAE

Flight info

Callsign EJA309
Flight time 1h 23m
Altitude 40000
Route LANNA J48 HAAGN MURPH Q75 GSO
Aircraft CL60/M-SBDE1E2E3FGHIJ1J4J5J7M3RWXYZ/LB1V1D1

Departure

Time 2026-04-24 01:10
Airport Teterboro Airport (KTEB)

Arrival

Time 2026-04-24 02:33
Airport Columbia Metropolitan Airport (KCAE)
Time Latitude Longitude Altitude Speed Heading
2026-04-24 00:38 40.84596 -74.06638 13 ft 0 kts 228°
2026-04-24 01:04 40.84595 -74.06639 13 ft 1 kts 240°
2026-04-24 01:04 40.84599 -74.06654 13 ft 0 kts 302°
2026-04-24 01:05 40.84623 -74.06687 13 ft 6 kts 317°
2026-04-24 01:05 40.84665 -74.06737 13 ft 9 kts 318°
2026-04-24 01:05 40.84723 -74.06738 13 ft 10 kts 44°
2026-04-24 01:05 40.84782 -74.06652 13 ft 14 kts 49°
2026-04-24 01:06 40.84856 -74.06544 13 ft 15 kts 49°
2026-04-24 01:06 40.84856 -74.06442 13 ft 14 kts 127°
2026-04-24 01:06 40.84787 -74.06324 13 ft 18 kts 128°
2026-04-24 01:06 40.84703 -74.06180 13 ft 19 kts 127°
2026-04-24 01:07 40.84614 -74.06128 13 ft 16 kts 183°
2026-04-24 01:07 40.84493 -74.06137 13 ft 19 kts 183°
2026-04-24 01:07 40.84351 -74.06148 13 ft 20 kts 184°
2026-04-24 01:07 40.84197 -74.06158 13 ft 22 kts 183°
2026-04-24 01:08 40.84075 -74.06167 13 ft 15 kts 183°
2026-04-24 01:08 40.83960 -74.06177 13 ft 13 kts 183°
2026-04-24 01:08 40.83887 -74.06163 13 ft 6 kts 119°
2026-04-24 01:08 40.83881 -74.06087 13 ft 8 kts 95°
2026-04-24 01:09 40.83890 -74.06036 13 ft 6 kts 15°
2026-04-24 01:09 40.83942 -74.06033 13 ft 8 kts
2026-04-24 01:09 40.84030 -74.06028 13 ft 29 kts
2026-04-24 01:09 40.84612 -74.05984 13 ft 135 kts
2026-04-24 01:10 40.85724 -74.05913 576 ft 175 kts
2026-04-24 01:10 40.86862 -74.05464 1766 ft 188 kts 30°
2026-04-24 01:10 40.88015 -74.04454 2133 ft 200 kts 30°
2026-04-24 01:10 40.89227 -74.03660 2340 ft 191 kts 10°
2026-04-24 01:11 40.90510 -74.03809 2412 ft 183 kts 330°
2026-04-24 01:11 40.91264 -74.05134 2964 ft 202 kts 289°
2026-04-24 01:11 40.91304 -74.07182 3785 ft 245 kts 270°
2026-04-24 01:11 40.91091 -74.09418 5246 ft 253 kts 268°
2026-04-24 01:12 40.90847 -74.11656 6837 ft 254 kts 268°
2026-04-24 01:12 40.90582 -74.13878 8350 ft 256 kts 268°
2026-04-24 01:12 40.90290 -74.16208 9335 ft 265 kts 268°
2026-04-24 01:12 40.89978 -74.18652 9826 ft 266 kts 268°
2026-04-24 01:13 40.89662 -74.21038 10111 ft 260 kts 268°
2026-04-24 01:13 40.89254 -74.23350 10593 ft 267 kts 257°
2026-04-24 01:13 40.88376 -74.25614 11134 ft 289 kts 251°
2026-04-24 01:13 40.87403 -74.27930 12450 ft 295 kts 251°
2026-04-24 01:14 40.86410 -74.30299 13870 ft 296 kts 252°
2026-04-24 01:14 40.85419 -74.32665 15218 ft 297 kts 252°
2026-04-24 01:14 40.84433 -74.35035 16249 ft 306 kts 251°
2026-04-24 01:14 40.83369 -74.37620 16718 ft 333 kts 251°
2026-04-24 01:15 40.82222 -74.40400 17182 ft 356 kts 250°
2026-04-24 01:15 40.81015 -74.43298 17911 ft 369 kts 250°
2026-04-24 01:15 40.79767 -74.46278 18865 ft 374 kts 250°
2026-04-24 01:15 40.78499 -74.49308 19758 ft 379 kts 250°
2026-04-24 01:16 40.77230 -74.52338 20690 ft 382 kts 250°
2026-04-24 01:16 40.75929 -74.55443 21516 ft 387 kts 250°
2026-04-24 01:16 40.74620 -74.58569 22299 ft 392 kts 250°
2026-04-24 01:16 40.73306 -74.61705 23056 ft 396 kts 250°
2026-04-24 01:17 40.71955 -74.64928 23764 ft 402 kts 250°
2026-04-24 01:17 40.70636 -74.68070 24497 ft 406 kts 249°
2026-04-24 01:17 40.69273 -74.71315 25209 ft 410 kts 249°
2026-04-24 01:17 40.67880 -74.74627 25884 ft 414 kts 249°
2026-04-24 01:18 40.66485 -74.77942 26510 ft 419 kts 249°
2026-04-24 01:18 40.65046 -74.81358 27158 ft 422 kts 249°
2026-04-24 01:18 40.63615 -74.84753 27677 ft 427 kts 249°
2026-04-24 01:18 40.62172 -74.88171 28221 ft 431 kts 249°
2026-04-24 01:19 40.60712 -74.91627 28712 ft 434 kts 249°
2026-04-24 01:19 40.59252 -74.95078 29229 ft 437 kts 249°
2026-04-24 01:19 40.57755 -74.98615 29699 ft 440 kts 249°
2026-04-24 01:19 40.56260 -75.02089 30337 ft 440 kts 246°
2026-04-24 01:20 40.54429 -75.05315 30950 ft 447 kts 238°
2026-04-24 01:20 40.52428 -75.08472 31525 ft 446 kts 239°
2026-04-24 01:20 40.50460 -75.11584 32097 ft 445 kts 239°
2026-04-24 01:20 40.48476 -75.14722 32651 ft 444 kts 239°
2026-04-24 01:21 40.46498 -75.17850 33193 ft 443 kts 240°
2026-04-24 01:21 40.44602 -75.20843 33745 ft 440 kts 240°
2026-04-24 01:21 40.42569 -75.24052 34193 ft 441 kts 240°
2026-04-24 01:21 40.40614 -75.27138 34685 ft 439 kts 240°
2026-04-24 01:22 40.38653 -75.30228 35204 ft 438 kts 240°
2026-04-24 01:22 40.36713 -75.33283 35671 ft 437 kts 240°
2026-04-24 01:22 40.34764 -75.36348 36197 ft 434 kts 240°
2026-04-24 01:22 40.32897 -75.39281 36646 ft 432 kts 239°
2026-04-24 01:23 40.30911 -75.42402 37060 ft 432 kts 239°
2026-04-24 01:23 40.28968 -75.45453 37415 ft 432 kts 239°
2026-04-24 01:23 40.27057 -75.48451 37755 ft 432 kts 239°
2026-04-24 01:23 40.25126 -75.51477 38092 ft 431 kts 239°
2026-04-24 01:24 40.23181 -75.54524 38421 ft 431 kts 239°
2026-04-24 01:24 40.21393 -75.57585 38703 ft 425 kts 244°
2026-04-24 01:24 40.19763 -75.60841 38976 ft 424 kts 245°
2026-04-24 01:24 40.18161 -75.64047 39250 ft 424 kts 245°
2026-04-24 01:25 40.16548 -75.67267 39468 ft 425 kts 244°
2026-04-24 01:25 40.14909 -75.70534 39731 ft 424 kts 244°
2026-04-24 01:25 40.13297 -75.73742 39936 ft 425 kts 244°
2026-04-24 01:26 40.10011 -75.80276 39932 ft 433 kts 244°
2026-04-24 01:26 40.06672 -75.86890 39939 ft 437 kts 244°
2026-04-24 01:27 40.03305 -75.93538 39937 ft 437 kts 244°
2026-04-24 01:27 39.99937 -76.00150 39937 ft 438 kts 242°
2026-04-24 01:28 39.95875 -76.06221 39933 ft 450 kts 229°
2026-04-24 01:28 39.90695 -76.10999 39931 ft 465 kts 214°
2026-04-24 01:29 39.84874 -76.14678 39927 ft 468 kts 212°
2026-04-24 01:29 39.79007 -76.18334 39927 ft 468 kts 212°
2026-04-24 01:30 39.73105 -76.22006 39927 ft 468 kts 212°
2026-04-24 01:30 39.67196 -76.25676 39926 ft 467 kts 212°
2026-04-24 01:31 39.61339 -76.29308 39927 ft 467 kts 212°
2026-04-24 01:31 39.55445 -76.32954 39928 ft 467 kts 212°
2026-04-24 01:32 39.49600 -76.36598 39928 ft 465 kts 214°
2026-04-24 01:32 39.44402 -76.41268 39925 ft 451 kts 230°
2026-04-24 01:33 39.39983 -76.46971 39922 ft 448 kts 232°
2026-04-24 01:33 39.35596 -76.52706 39919 ft 449 kts 232°
2026-04-24 01:34 39.31195 -76.58450 39918 ft 449 kts 232°
2026-04-24 01:34 39.26790 -76.64187 39920 ft 448 kts 232°
2026-04-24 01:35 39.22432 -76.69851 39921 ft 449 kts 232°
2026-04-24 01:35 39.18043 -76.75546 39920 ft 449 kts 232°
2026-04-24 01:36 39.13619 -76.81276 39921 ft 449 kts 231°
2026-04-24 01:36 39.09211 -76.86974 39923 ft 450 kts 231°
2026-04-24 01:37 39.04787 -76.92681 39922 ft 449 kts 231°
2026-04-24 01:37 39.00384 -76.98351 39930 ft 449 kts 231°
2026-04-24 01:38 38.95958 -77.04050 39924 ft 449 kts 231°
2026-04-24 01:38 38.91542 -77.09727 39929 ft 450 kts 231°
2026-04-24 01:39 38.87278 -77.15200 39927 ft 449 kts 231°
2026-04-24 01:39 38.82890 -77.20821 39920 ft 449 kts 232°
2026-04-24 01:40 38.78457 -77.26489 39923 ft 449 kts 231°
2026-04-24 01:40 38.74010 -77.32164 39923 ft 449 kts 231°
2026-04-24 01:41 38.69427 -77.37597 39931 ft 452 kts 229°
2026-04-24 01:41 38.64766 -77.42979 39930 ft 452 kts 229°
2026-04-24 01:42 38.60077 -77.48386 39932 ft 452 kts 228°
2026-04-24 01:42 38.55409 -77.53760 39935 ft 452 kts 228°
2026-04-24 01:43 38.50732 -77.59136 39934 ft 452 kts 228°
2026-04-24 01:43 38.46048 -77.64509 39932 ft 453 kts 228°
2026-04-24 01:44 38.41336 -77.69906 39932 ft 453 kts 228°
2026-04-24 01:44 38.36632 -77.75284 39929 ft 453 kts 227°
2026-04-24 01:45 38.31921 -77.80659 39931 ft 453 kts 227°
2026-04-24 01:45 38.27246 -77.85984 39931 ft 453 kts 227°
2026-04-24 01:46 38.22661 -77.91198 39937 ft 453 kts 227°
2026-04-24 01:46 38.17950 -77.96545 39939 ft 454 kts 227°
2026-04-24 01:47 38.13215 -78.01910 39941 ft 454 kts 227°
2026-04-24 01:47 38.08505 -78.07237 39939 ft 453 kts 227°
2026-04-24 01:48 38.03809 -78.12539 39944 ft 453 kts 227°
2026-04-24 01:48 37.98959 -78.17669 39947 ft 457 kts 222°
2026-04-24 01:49 37.93852 -78.22529 39949 ft 458 kts 222°
2026-04-24 01:49 37.88743 -78.27393 39949 ft 457 kts 222°
2026-04-24 01:50 37.83648 -78.32237 39945 ft 457 kts 222°
2026-04-24 01:50 37.78552 -78.37077 39951 ft 457 kts 222°
2026-04-24 01:51 37.73452 -78.41914 39955 ft 458 kts 223°
2026-04-24 01:51 37.68375 -78.46722 39960 ft 457 kts 223°
2026-04-24 01:52 37.63263 -78.51555 39968 ft 457 kts 222°
2026-04-24 01:52 37.58155 -78.56377 39969 ft 457 kts 222°
2026-04-24 01:53 37.53046 -78.61192 39970 ft 458 kts 222°
2026-04-24 01:53 37.47926 -78.66010 39970 ft 458 kts 221°
2026-04-24 01:54 37.42825 -78.70802 39973 ft 458 kts 221°
2026-04-24 01:54 37.37703 -78.75603 39974 ft 457 kts 221°
2026-04-24 01:55 37.32575 -78.80404 39978 ft 458 kts 221°
2026-04-24 01:55 37.27430 -78.85213 39978 ft 458 kts 221°
2026-04-24 01:56 37.22316 -78.89983 39979 ft 459 kts 221°
2026-04-24 01:56 37.17172 -78.94773 39971 ft 459 kts 221°
2026-04-24 01:57 37.12109 -78.99480 39965 ft 459 kts 221°
2026-04-24 01:57 37.06955 -79.04265 39964 ft 459 kts 221°
2026-04-24 01:58 37.01808 -79.09033 39964 ft 459 kts 221°
2026-04-24 01:58 36.96644 -79.13811 39965 ft 459 kts 221°
2026-04-24 01:59 36.91492 -79.18568 39967 ft 459 kts 221°
2026-04-24 01:59 36.86332 -79.23325 39972 ft 459 kts 221°
2026-04-24 02:00 36.81174 -79.28072 39977 ft 459 kts 221°
2026-04-24 02:00 36.76018 -79.32808 39973 ft 459 kts 221°
2026-04-24 02:01 36.70875 -79.37525 39976 ft 460 kts 221°
2026-04-24 02:01 36.65704 -79.42260 39980 ft 460 kts 221°
2026-04-24 02:02 36.60534 -79.46984 39982 ft 459 kts 221°
2026-04-24 02:02 36.55363 -79.51704 39977 ft 460 kts 221°
2026-04-24 02:03 36.47597 -79.58774 39981 ft 460 kts 221°
2026-04-24 02:03 36.42452 -79.63449 39986 ft 460 kts 221°
2026-04-24 02:04 36.37257 -79.68161 39991 ft 461 kts 220°
2026-04-24 02:04 36.32058 -79.72870 39998 ft 461 kts 220°
2026-04-24 02:05 36.26848 -79.77579 39998 ft 461 kts 220°
2026-04-24 02:05 36.21659 -79.82262 40003 ft 461 kts 220°
2026-04-24 02:06 36.16474 -79.86933 40012 ft 461 kts 220°
2026-04-24 02:06 36.11259 -79.91623 40010 ft 461 kts 220°
2026-04-24 02:07 36.06025 -79.96222 40012 ft 464 kts 216°
2026-04-24 02:07 36.00094 -79.99616 40013 ft 471 kts 203°
2026-04-24 02:08 35.93962 -80.02296 40001 ft 470 kts 203°
2026-04-24 02:08 35.87770 -80.05006 40010 ft 470 kts 203°
2026-04-24 02:09 35.81596 -80.07706 40006 ft 471 kts 203°
2026-04-24 02:09 35.75362 -80.10426 39894 ft 473 kts 203°
2026-04-24 02:10 35.72237 -80.11789 39345 ft 473 kts 202°
2026-04-24 02:10 35.69169 -80.13123 38781 ft 467 kts 202°
2026-04-24 02:10 35.66100 -80.14459 38212 ft 464 kts 202°
2026-04-24 02:10 35.63058 -80.15781 37630 ft 463 kts 202°
2026-04-24 02:11 35.60017 -80.17104 37029 ft 462 kts 202°
2026-04-24 02:11 35.56994 -80.18416 36426 ft 462 kts 202°
2026-04-24 02:11 35.53968 -80.19729 35814 ft 462 kts 202°
2026-04-24 02:11 35.50904 -80.21057 35201 ft 462 kts 202°
2026-04-24 02:12 35.47889 -80.22364 34589 ft 463 kts 202°
2026-04-24 02:12 35.44858 -80.23676 33979 ft 464 kts 201°
2026-04-24 02:12 35.41763 -80.25015 33366 ft 466 kts 201°
2026-04-24 02:12 35.38706 -80.26337 32734 ft 466 kts 201°
2026-04-24 02:13 35.35646 -80.27658 32113 ft 467 kts 201°
2026-04-24 02:13 35.32612 -80.28967 31493 ft 468 kts 201°
2026-04-24 02:13 35.29502 -80.30308 30862 ft 468 kts 201°
2026-04-24 02:13 35.26455 -80.31621 30244 ft 468 kts 201°
2026-04-24 02:14 35.23373 -80.32947 29613 ft 469 kts 201°
2026-04-24 02:14 35.20325 -80.34258 28998 ft 469 kts 201°
2026-04-24 02:14 35.17235 -80.35586 28369 ft 465 kts 201°
2026-04-24 02:14 35.14208 -80.36885 27760 ft 460 kts 201°
2026-04-24 02:15 35.11196 -80.38177 27153 ft 455 kts 201°
2026-04-24 02:15 35.08226 -80.39450 26548 ft 450 kts 201°
2026-04-24 02:15 35.05255 -80.40723 25951 ft 446 kts 201°
2026-04-24 02:15 35.02357 -80.41963 25362 ft 442 kts 201°
2026-04-24 02:16 34.99439 -80.43211 24773 ft 438 kts 201°
2026-04-24 02:16 34.96569 -80.44438 24192 ft 434 kts 201°
2026-04-24 02:16 34.93760 -80.45638 23624 ft 430 kts 201°
2026-04-24 02:16 34.90934 -80.46845 23052 ft 426 kts 201°
2026-04-24 02:17 34.88164 -80.48026 22497 ft 421 kts 201°
2026-04-24 02:17 34.85361 -80.49221 21929 ft 417 kts 200°
2026-04-24 02:17 34.82668 -80.50368 21382 ft 413 kts 201°
2026-04-24 02:17 34.79937 -80.51530 20826 ft 409 kts 200°
2026-04-24 02:18 34.77282 -80.52660 20296 ft 405 kts 200°
2026-04-24 02:18 34.74598 -80.53802 19755 ft 402 kts 200°
2026-04-24 02:18 34.71950 -80.54926 19215 ft 398 kts 200°
2026-04-24 02:18 34.69366 -80.56023 18694 ft 394 kts 200°
2026-04-24 02:19 34.66777 -80.57121 18174 ft 391 kts 200°
2026-04-24 02:19 34.64217 -80.58206 17655 ft 387 kts 200°
2026-04-24 02:19 34.61664 -80.59288 17106 ft 384 kts 200°
2026-04-24 02:19 34.59145 -80.60355 16605 ft 381 kts 200°
2026-04-24 02:20 34.56649 -80.61410 16104 ft 378 kts 200°
2026-04-24 02:20 34.54174 -80.62457 15597 ft 375 kts 200°
2026-04-24 02:20 34.51706 -80.63500 15108 ft 373 kts 200°
2026-04-24 02:20 34.49250 -80.64538 14614 ft 371 kts 199°
2026-04-24 02:21 34.46814 -80.65565 14131 ft 368 kts 199°
2026-04-24 02:21 34.44388 -80.66589 13627 ft 362 kts 198°
2026-04-24 02:21 34.42048 -80.67577 13166 ft 352 kts 198°
2026-04-24 02:21 34.39751 -80.68544 12696 ft 344 kts 199°
2026-04-24 02:22 34.37520 -80.69484 12247 ft 336 kts 199°
2026-04-24 02:22 34.35334 -80.70404 11834 ft 327 kts 199°
2026-04-24 02:22 34.33175 -80.71312 11359 ft 322 kts 199°
2026-04-24 02:22 34.31096 -80.72186 10969 ft 315 kts 199°
2026-04-24 02:23 34.29016 -80.73059 10521 ft 311 kts 199°
2026-04-24 02:23 34.26978 -80.73914 10135 ft 305 kts 199°
2026-04-24 02:23 34.24979 -80.74754 9708 ft 302 kts 199°
2026-04-24 02:23 34.22987 -80.75589 9329 ft 297 kts 200°
2026-04-24 02:24 34.21040 -80.76405 8930 ft 293 kts 200°
2026-04-24 02:24 34.19132 -80.77204 8540 ft 289 kts 200°
2026-04-24 02:24 34.17231 -80.78000 8158 ft 285 kts 200°
2026-04-24 02:24 34.15345 -80.78790 7770 ft 283 kts 200°
2026-04-24 02:25 34.13502 -80.79561 7409 ft 281 kts 200°
2026-04-24 02:25 34.11640 -80.80340 7024 ft 280 kts 200°
2026-04-24 02:25 34.09801 -80.81108 6649 ft 276 kts 201°
2026-04-24 02:25 34.08008 -80.81857 6313 ft 271 kts 201°
2026-04-24 02:26 34.06209 -80.82608 5933 ft 267 kts 201°
2026-04-24 02:26 34.04481 -80.83329 5587 ft 261 kts 201°
2026-04-24 02:26 34.02779 -80.84040 5239 ft 257 kts 200°
2026-04-24 02:26 34.01091 -80.84744 4894 ft 252 kts 200°
2026-04-24 02:27 33.99441 -80.85432 4539 ft 245 kts 200°
2026-04-24 02:27 33.97836 -80.86100 4237 ft 236 kts 200°
2026-04-24 02:27 33.96316 -80.86733 3926 ft 229 kts 200°
2026-04-24 02:27 33.94810 -80.87360 3624 ft 222 kts 200°
2026-04-24 02:28 33.93379 -80.87956 3335 ft 216 kts 201°
2026-04-24 02:28 33.91968 -80.88543 3051 ft 209 kts 201°
2026-04-24 02:28 33.90704 -80.89309 2795 ft 200 kts 221°
2026-04-24 02:28 33.89918 -80.90643 2628 ft 188 kts 249°
2026-04-24 02:29 33.89817 -80.92139 2482 ft 178 kts 277°
2026-04-24 02:29 33.90073 -80.93599 2346 ft 177 kts 278°
2026-04-24 02:29 33.90328 -80.95039 2374 ft 178 kts 279°
2026-04-24 02:29 33.90637 -80.96489 2398 ft 179 kts 281°
2026-04-24 02:30 33.90949 -80.97935 2251 ft 175 kts 281°
2026-04-24 02:30 33.91245 -80.99275 2146 ft 161 kts 281°
2026-04-24 02:30 33.91532 -81.00589 1886 ft 157 kts 281°
2026-04-24 02:30 33.91796 -81.01784 1750 ft 142 kts 280°
2026-04-24 02:31 33.92041 -81.02894 1568 ft 126 kts 281°
2026-04-24 02:31 33.92262 -81.03899 1429 ft 123 kts 280°
2026-04-24 02:31 33.92473 -81.04874 1240 ft 120 kts 281°
2026-04-24 02:31 33.92684 -81.05856 1103 ft 121 kts 281°
2026-04-24 02:32 33.92895 -81.06834 925 ft 120 kts 281°
2026-04-24 02:32 33.93115 -81.07813 772 ft 120 kts 283°
2026-04-24 02:32 33.93330 -81.08789 629 ft 121 kts 282°
2026-04-24 02:32 33.93543 -81.09764 487 ft 121 kts 283°
2026-04-24 02:33 33.93754 -81.10747 307 ft 121 kts 283°
2026-04-24 02:33 33.93959 -81.11695 222 ft 107 kts 284°
2026-04-24 02:33 33.94114 -81.12398 229 ft 64 kts 283°
2026-04-24 02:33 33.94183 -81.12717 233 ft 36 kts 284°
2026-04-24 02:34 33.94247 -81.12968 235 ft 28 kts 297°
2026-04-24 02:34 33.94352 -81.13139 237 ft 20 kts 315°
2026-04-24 02:34 33.94413 -81.13210 238 ft 9 kts 321°
2026-04-24 02:34 33.94476 -81.13195 240 ft 11 kts 63°
2026-04-24 02:35 33.94465 -81.13091 241 ft 14 kts 105°
2026-04-24 02:35 33.94434 -81.12954 240 ft 19 kts 105°
2026-04-24 02:35 33.94401 -81.12799 240 ft 19 kts 105°
2026-04-24 02:35 33.94363 -81.12625 239 ft 23 kts 105°
2026-04-24 02:36 33.94320 -81.12427 238 ft 9 kts 105°
2026-04-24 02:36 33.94301 -81.12345 237 ft 12 kts 105°
2026-04-24 02:36 33.94274 -81.12221 234 ft 17 kts 103°
2026-04-24 02:36 33.94273 -81.12116 233 ft 11 kts 26°
2026-04-24 02:37 33.94329 -81.12109 234 ft 6 kts 327°
2026-04-24 02:37 33.94372 -81.12129 235 ft 5 kts 357°
2026-04-24 02:37 33.94409 -81.12116 236 ft 5 kts 36°
2026-04-24 02:37 33.94410 -81.12115 236 ft 0 kts 36°